Terminal Aerodrome Forecast
Issued by NWS Tuscon, AZ

Home | Current Version | Previous Version | Text Only | Print | Product List | Glossary On
Versions: 1 2 3 4 5 6 7 8 9 10 11 12 13
245
FTUS45 KTWC 111741
TAFDUG
TAF
KDUG 111741Z 1118/1218 VRB03KT P6SM SKC
     FM112200 35006KT P6SM SKC
     FM120300 VRB04KT P6SM SKC=

USA.gov is the U.S. government's official web portal to all federal, state and local government web resources and services.